Погода в Самарском

Казахстан     49°01′16″N   83°21′49″E
темп.,
°C
ветер,
м/с
пор.,
м/с
влажн.,
%
обл.,
%
осадки,
мм/ч
давл.,
гПа
погр.,
м
3 марта, ср
ср300:00−5з2397100 7.0 1016140
03:00−5ююз2597100 2.3 1016244
06:00−7ююз2298100 2.9 101930
09:00−6юз1295100 0.3 102152
12:00−5юз2481100 0.3 1023341
15:00−6юз35878 0.0 1024345
18:00−11з22908 0.0 102721
21:00−14сз228828 0.0 103021
4 марта, чт
чт400:00−15ссв228815 0.0 103120
03:00−18св11980 0.0 103220
06:00−16с22890 0.0 103320
09:00−14с22800 0.0 103321
12:00−9всв11760 0.0 1031120
15:00−8в11830 0.0 102972
18:00−13ссв22720 0.0 102921
21:00−13с22670 0.0 102921
5 марта, пт
пт500:00−12с116724 0.0 102721
03:00−11зсз2264100 0.0 102421
06:00−9зсз227599 0.0 102323
09:00−7зсз3493100 0.8 1024215
12:00−6зюз3793100 4.6 1027492
15:00−5ююз3594100 0.9 1030426
18:00−8ююв1199100 1.1 103325
21:00−8ююз1197100 0.4 103521
6 марта, сб
сб600:00−9зюз1197100 1.1 103622
03:00−9сз1197100 0.6 103521
06:00−9ссв1196100 0.9 103421
09:00−7св119599 0.3 103233
12:00−5всв118673 0.3 1029169
15:00−4всв01830 0.0 102693
18:00−8ссз22760 0.0 102521
21:00−8ссз33760 0.0 102521
7 марта, вс
вс700:00−9ссз22730 0.0 102521
03:00−9с22710 0.0 102421
06:00−10с12650 0.0 102421
09:00−8ссв116560 0.0 102322
12:00−4всв016779 0.0 102276
15:00−3всв007867 0.0 102182
18:00−6ссз226778 0.0 102121
21:00−5ссз1267100 0.0 102221